sat.trackr.live / text

‹ back to catalog

STARLINK-37073

NORAD 68151 · 2026-049K

PAYLOAD ACTIVE UNKNOWN

§ Identity

Operator
Country
US
Launch date
2026-03-13
Launch site
AFWTR
Launch vehicle
Mass (kg)
RCS (m²)

Purposes: comms

External: N2YO · Heavens-Above · Gunter

§ Orbital elements

Epoch: 2026-05-25T01:37:37.752384Z

Period
93.90 min
Inclination
97.2849°
Eccentricity
0.0000971
Mean motion
15.33469650 rev/d
Perigee alt
464.8 km
Apogee alt
466.1 km
Semi-major
6,843.6 km
B*
6.2664e-4
RAAN
166.7422°
Arg perigee
116.8614°
Mean anomaly
243.2728°
Rev number
1,135

§ Raw data

STARLINK-370731 68151U 26049K   26145.06779806  .00020225  00000+0  62664-3 0  99902 68151  97.2849 166.7422 0000971 116.8614 243.2728 15.33469650 11354

JSON: /api/v1/satellites/68151 · /tle

For live sub-satellite position, see the globe view (requires WebGL).

§ Visibility from observer

Set your observer location to see the next 7 days of passes ≥ 10°. The values pass through the URL so the page stays shareable.

No JS? Fill the form by hand. The geolocation button needs JavaScript.